Flag for U.S.A. Weather past 2 weeks in Sarasota, Florida, U.S.A.

Now
79 °F

Clear.


Feels Like: 83 °F
Forecast: 75 / 88 °F
Wind: 3 mph from Northwest

Location: Sarasota-Bradenton International Airport

Current Time: Aug 5, 2015 at 12:35:37 AM

Latest Report: Aug 4, 2015 at 11:53 PM


Visibility: 10 mi

Pressure: 30.08 "Hg

Humidity: 90%

Dew point: 76 °F

Location of SarasotaLocation

Historic Weather in Sarasota — Graph

°F

Sarasota temperature yesterday

Maximum temperature yesterday: 87 °F (at 12:53 PM)
Minimum temperature yesterday: 74 °F (at 4:53 AM)
Average temperature yesterday: 82 °F

Past Weeks' High & Low Weather Summary

 TemperatureHumidityPressure
High90 °F (Jul 22, 1:53 PM)100% (Jul 30, 10:53 PM)30.08 "Hg (Jul 30, 10:53 PM)
Low73 °F (Aug 1, 11:53 PM)61% (Aug 3, 3:53 PM)29.83 "Hg (Jul 26, 3:53 AM)
Average82 °F80%29.96 "Hg
* Reported Jul 20 10:53 PM — Aug 4 10:53 PM, Sarasota, Weather by CustomWeather, © 2015

Note: Actual official high and low records may vary slightly from our data, if they occured in-between our weather recording intervals... More about our weather records

Advertising

Sarasota weather history for previous 24 hours

 ConditionsComfort  
Time TempWeatherWind HumidityBarometerVisibility
10:53 PM
Tue, Aug 4
79 °FClear.No wind88%30.07 "Hg10 mi
9:53 PM81 °FClear.3 mph79%30.06 "Hg10 mi
8:53 PM81 °FSunny.3 mph79%30.05 "Hg10 mi
7:53 PM83 °FSunny.6 mph74%30.04 "Hg10 mi
6:53 PM86 °FSunny.7 mph70%30.03 "Hg10 mi
5:53 PM86 °FSunny.8 mph70%30.04 "Hg10 mi
4:53 PM87 °FSunny.10 mph65%30.03 "Hg10 mi
3:53 PM87 °FSunny.10 mph67%30.04 "Hg10 mi
2:53 PM87 °FSunny.9 mph65%30.06 "Hg10 mi
1:53 PM87 °FSunny.9 mph67%30.07 "Hg10 mi
12:53 PM87 °FSunny.9 mph67%30.08 "Hg10 mi
11:53 AM86 °FSunny.9 mph70%30.07 "Hg10 mi
10:53 AM86 °FSunny.8 mph70%30.06 "Hg10 mi
9:53 AM84 °FSunny.7 mph72%30.05 "Hg10 mi
8:53 AM80 °FSunny.No wind85%30.05 "Hg10 mi
7:53 AM76 °FClear.3 mph94%30.03 "Hg10 mi
6:53 AM74 °FClear.3 mph97%30.01 "Hg10 mi
5:53 AM74 °FClear.5 mph97%29.99 "Hg10 mi
4:53 AM74 °FClear.6 mph97%29.98 "Hg9 mi
3:53 AM75 °FClear.5 mph96%29.98 "Hg9 mi
2:53 AM76 °FClear.5 mph97%29.98 "Hg9 mi
1:53 AM80 °FClear.6 mph87%29.99 "Hg10 mi
12:53 AM80 °FClear.6 mph87%29.99 "Hg10 mi
Weather by CustomWeather, © 2015

See weather overviewHow to use our weather pages